Date String (YYYY-MM-DD hh:mm:ss) UTC,Instrument flags,absolute air pressure of the measurement (hPa),sample flow rate (lpm),inlet stack bypass flow (lpm),air temperature of the measurement (°C),ambient temperature measured by the external sensor (°C),aerosol sample conditioner tube jacket temperature (°C),OPC LED temperature (°C),internal box temperature (°C),relative humidity of the measurement (%),span deviation,mass concentration of particles derived from Lorenz-Mie calculation of OPC scattering (μg/m³),mass concentration of particles derived from Lorenz-Mie calculation of OPC scattering (μg/m³),mass concentration of particles derived from Lorenz-Mie calculation of OPC scattering (μg/m³)
DateTimeUTC,F1_M11,P_M11,Q1_M11,Q2_M11,T1_M11,T2_M11,T3_M11,T4_M11,T5_M11,U1_M11,ZSPAN_M11,X0_M11,X2_M11,X1_M11
2024-01-13 08:00:00,SystemResetWarning,0818.7,5.00,000.00,018.9,018.1,000.0,027.4,020.0,5.2,0001.9,0009.45,0004.81,0004.32
2024-01-13 08:01:00,SystemResetWarning,0818.7,5.00,000.00,018.9,017.9,000.0,027.4,020.0,5.2,0001.4,0009.48,0004.83,0004.32
2024-01-13 08:02:00,SystemResetWarning,0818.6,5.00,000.00,018.9,017.8,000.0,027.4,020.0,5.2,0000.6,0009.59,0004.81,0004.31
2024-01-13 08:03:00,SystemResetWarning,0818.6,5.00,000.00,018.9,017.8,000.0,027.4,020.1,5.2,-000.0,0009.93,0004.80,0004.32
2024-01-13 08:04:00,SystemResetWarning,0818.6,5.01,000.00,018.9,018.2,000.0,027.4,020.5,5.1,-000.2,0010.02,0004.81,0004.32
2024-01-13 08:05:00,SystemResetWarning,0818.7,5.00,000.00,019.1,018.9,000.0,027.3,020.8,5.1,0000.4,0009.92,0004.81,0004.33
2024-01-13 08:06:00,SystemResetWarning,0818.8,4.99,000.00,019.1,019.0,000.0,027.3,020.5,5.1,0000.4,0009.56,0004.84,0004.35
2024-01-13 08:07:00,SystemResetWarning,0818.9,5.00,000.00,019.1,018.8,000.0,027.3,020.2,5.1,0000.2,0009.29,0004.81,0004.35
2024-01-13 08:08:00,SystemResetWarning,0818.8,4.99,000.00,019.0,018.6,000.0,027.3,020.0,5.1,-000.1,0009.17,0004.82,0004.34
2024-01-13 08:09:00,SystemResetWarning,0818.9,5.01,000.00,018.9,018.3,000.0,027.3,020.0,5.1,0000.5,0009.23,0004.86,0004.35
2024-01-13 08:10:00,SystemResetWarning,0819.1,5.00,000.00,018.9,018.1,000.0,027.3,020.0,5.1,0000.2,0009.07,0004.90,0004.36
2024-01-13 08:11:00,SystemResetWarning,0819.1,5.00,000.00,018.9,018.0,000.0,027.3,020.0,5.1,0000.0,0009.11,0004.89,0004.37
2024-01-13 08:12:00,SystemResetWarning,0819.0,5.00,000.00,018.9,017.8,000.0,027.3,020.0,5.1,-000.2,0009.07,0004.88,0004.37
2024-01-13 08:13:00,SystemResetWarning,0819.0,5.00,000.00,018.9,017.7,000.0,027.3,020.0,5.1,0001.4,0008.85,0004.88,0004.39
2024-01-13 08:14:00,SystemResetWarning,0819.2,5.01,000.00,018.9,018.1,000.0,027.3,020.4,5.1,0002.9,0008.50,0004.91,0004.40
2024-01-13 08:15:00,SystemResetWarning,0818.9,5.00,000.00,019.0,018.8,000.0,027.3,020.8,5.1,0003.2,0009.00,0004.89,0004.39
2024-01-13 08:16:00,SystemResetWarning,0818.8,4.99,000.00,019.1,018.9,000.0,027.3,020.6,5.1,0003.2,0008.93,0004.88,0004.39
2024-01-13 08:17:00,SystemResetWarning,0818.8,4.99,000.00,019.0,018.7,000.0,027.3,020.2,5.1,0002.9,0008.88,0004.88,0004.38
2024-01-13 08:18:00,SystemResetWarning,0818.9,5.01,000.00,019.0,018.4,000.0,027.3,020.0,5.1,0003.1,0008.78,0004.88,0004.38
2024-01-13 08:19:00,SystemResetWarning,0818.7,5.00,000.00,018.9,018.2,000.0,027.3,020.0,5.1,0003.3,0008.78,0004.87,0004.40
2024-01-13 08:20:00,SystemResetWarning,0818.7,5.00,000.00,018.9,018.0,000.0,027.4,020.0,5.1,0003.5,0008.77,0004.85,0004.40
2024-01-13 08:21:00,SystemResetWarning,0819.2,5.01,000.00,018.9,017.8,000.0,027.4,020.0,5.1,0003.6,0008.65,0004.79,0004.39
2024-01-13 08:22:00,SystemResetWarning,0819.2,5.01,000.00,018.9,017.8,000.0,027.4,020.2,5.1,0004.0,0008.69,0004.79,0004.40
2024-01-13 08:23:00,SystemResetWarning,0818.9,5.00,000.00,019.0,018.4,000.0,027.3,020.6,5.1,0003.8,0008.68,0004.77,0004.40
2024-01-13 08:24:00,SystemResetWarning,0818.6,5.00,000.00,019.1,019.1,000.0,027.3,020.9,5.0,0003.7,0008.76,0004.80,0004.41
2024-01-13 08:25:00,SystemResetWarning,0818.3,5.00,000.00,019.2,019.2,000.0,027.3,020.7,5.0,0003.1,0008.90,0004.81,0004.40
2024-01-13 08:26:00,SystemResetWarning,0818.3,4.99,000.00,019.1,018.9,000.0,027.3,020.1,5.0,0002.5,0008.46,0004.85,0004.41
2024-01-13 08:27:00,SystemResetWarning,0818.5,5.00,000.00,019.0,018.6,000.0,027.3,020.0,5.0,0001.9,0009.18,0004.89,0004.43
2024-01-13 08:28:00,SystemResetWarning,0818.6,5.00,000.00,019.0,018.3,000.0,027.4,020.0,5.0,0001.3,0009.11,0004.87,0004.43
2024-01-13 08:29:00,SystemResetWarning,0818.6,5.00,000.00,019.0,018.1,000.0,027.4,020.0,5.0,0000.8,0009.15,0004.89,0004.42
2024-01-13 08:30:00,SystemResetWarning,0818.8,5.00,000.00,019.0,018.0,000.0,027.4,020.2,5.0,0001.0,0009.24,0004.92,0004.42
2024-01-13 08:31:00,SystemResetWarning,0819.1,5.01,000.00,019.0,018.5,000.0,027.4,020.6,5.0,0000.1,0010.00,0004.90,0004.42
2024-01-13 08:32:00,SystemResetWarning,0819.0,5.00,000.00,019.2,019.0,000.0,027.4,020.8,5.0,-000.0,0010.01,0004.91,0004.43
2024-01-13 08:33:00,SystemResetWarning,0819.0,4.99,000.00,019.1,018.8,000.0,027.3,020.2,5.0,0000.1,0010.01,0004.91,0004.42
2024-01-13 08:34:00,SystemResetWarning,0819.0,5.00,000.00,019.0,018.5,000.0,027.4,020.0,5.0,0000.2,0010.02,0004.92,0004.42
2024-01-13 08:35:00,SystemResetWarning,0819.0,5.01,000.00,019.0,018.2,000.0,027.4,020.0,5.0,0000.2,0010.20,0004.91,0004.42
2024-01-13 08:36:00,SystemResetWarning,0819.0,5.00,000.00,019.0,018.0,000.0,027.4,020.0,5.0,0000.2,0010.27,0004.90,0004.42
2024-01-13 08:37:00,SystemResetWarning,0819.3,5.00,000.00,019.0,017.9,000.0,027.4,020.2,5.0,0000.6,0010.15,0004.88,0004.42
2024-01-13 08:38:00,SystemResetWarning,0819.1,5.02,000.00,019.0,018.5,000.0,027.3,020.6,5.0,0001.0,0009.58,0004.85,0004.42
2024-01-13 08:39:00,SystemResetWarning,0819.3,5.00,000.00,019.2,019.1,000.0,027.4,021.0,4.9,0001.7,0009.35,0004.84,0004.42
2024-01-13 08:40:00,SystemResetWarning,0819.2,4.99,000.00,019.2,019.2,000.0,027.4,020.7,4.9,0002.7,0009.45,0004.83,0004.41
2024-01-13 08:41:00,SystemResetWarning,0819.1,4.99,000.00,019.1,018.9,000.0,027.4,020.2,4.9,0002.5,0009.27,0004.77,0004.40
2024-01-13 08:42:00,SystemResetWarning,0819.2,5.01,000.00,019.0,018.5,000.0,027.4,020.0,4.9,0002.7,0008.63,0004.78,0004.41
2024-01-13 08:43:00,SystemResetWarning,0819.2,5.01,000.00,019.0,018.2,000.0,027.4,020.0,4.9,0002.8,0008.37,0004.79,0004.41
2024-01-13 08:44:00,SystemResetWarning,0819.3,5.00,000.00,018.9,018.0,000.0,027.4,020.0,4.9,0002.4,0008.29,0004.81,0004.43
2024-01-13 08:45:00,SystemResetWarning,0819.4,5.00,000.00,018.9,017.8,000.0,027.4,020.0,4.9,0002.6,0008.17,0004.82,0004.44
2024-01-13 08:46:00,SystemResetWarning,0819.3,5.00,000.00,018.9,017.8,000.0,027.4,020.2,4.9,0003.1,0008.08,0004.83,0004.43
2024-01-13 08:47:00,SystemResetWarning,0819.3,5.01,000.00,019.0,018.4,000.0,027.4,020.6,4.9,0002.5,0007.91,0004.84,0004.44
2024-01-13 08:48:00,SystemResetWarning,0819.3,5.00,000.00,019.1,019.1,000.0,027.4,021.0,4.9,0003.5,0007.92,0004.84,0004.45
2024-01-13 08:49:00,SystemResetWarning,0819.3,5.00,000.00,019.2,019.3,000.0,027.4,020.7,4.8,0003.5,0008.11,0004.88,0004.46
2024-01-13 08:50:00,SystemResetWarning,0819.2,4.98,000.00,019.1,019.0,000.0,027.4,020.2,4.9,0002.1,0008.17,0004.91,0004.47
2024-01-13 08:51:00,SystemResetWarning,0819.1,5.00,000.00,019.0,018.6,000.0,027.4,020.0,4.8,0000.9,0008.10,0004.93,0004.49
2024-01-13 08:52:00,SystemResetWarning,0819.1,5.00,000.00,019.0,018.3,000.0,027.4,020.0,4.8,0000.0,0008.17,0004.95,0004.50
2024-01-13 08:53:00,SystemResetWarning,0819.1,5.00,000.00,019.0,018.0,000.0,027.4,020.0,4.9,0000.0,0008.18,0004.95,0004.50
2024-01-13 08:54:00,SystemResetWarning,0819.1,5.00,000.00,018.9,017.8,000.0,027.4,020.0,4.9,0000.0,0008.08,0004.92,0004.49
2024-01-13 08:55:00,SystemResetWarning,0819.0,5.01,000.00,019.0,018.1,000.0,027.4,020.4,4.8,0000.0,0008.11,0004.92,0004.48
2024-01-13 08:56:00,SystemResetWarning,0819.1,5.01,000.00,019.1,018.8,000.0,027.4,020.8,4.8,0000.5,0008.09,0004.91,0004.46
2024-01-13 08:57:00,SystemResetWarning,0819.3,5.00,000.00,019.2,019.3,000.0,027.4,020.9,4.8,0001.0,0008.09,0004.92,0004.47
2024-01-13 08:58:00,SystemResetWarning,0819.5,4.99,000.00,019.2,019.2,000.0,027.4,020.4,4.8,0003.1,0008.03,0004.90,0004.46
2024-01-13 08:59:00,SystemResetWarning,0819.3,4.99,000.00,019.1,018.8,000.0,027.4,020.0,4.8,0001.8,0007.97,0004.88,0004.44
